• Em Portugal
  • Lista de países
  • Para 7 dias
  • Temperatura da água
  • Mapas de satélite
  • Mapa do tempo
  • Widgets de tempo
  • user-avatar
    Iniciar Sessão

    Previsão horária em Jaú

    Hoje, 22 Setembro, Sexta-feira

    Tempo Temperatura Precipitação Vento Pressão Humidade
    00:00 +35°C° 0 mm 3 m/s 752 mmHg 59%
    01:00 +35°C° 0 mm 3 m/s 752 mmHg 59%
    02:00 +35°C° 0 mm 2 m/s 751 mmHg 59%
    03:00 +34°C° 0 mm 2 m/s 751 mmHg 59%
    04:00 +33°C° 0 mm 1 m/s 752 mmHg 59%
    05:00 +33°C° 0 mm 1 m/s 752 mmHg 58%
    06:00 +32°C° 0 mm 1 m/s 752 mmHg 57%
    07:00 +34°C° 0 mm 1 m/s 752 mmHg 53%
    08:00 +35°C° 0 mm 1 m/s 753 mmHg 48%
    09:00 +37°C° 0 mm 1 m/s 753 mmHg 43%
    10:00 +39°C° 0 mm 1 m/s 753 mmHg 39%
    11:00 +40°C° 0 mm 1 m/s 753 mmHg 34%
    12:00 +41°C° 0 mm 2 m/s 753 mmHg 30%
    13:00 +41°C° 0 mm 2 m/s 753 mmHg 27%
    14:00 +42°C° 0 mm 3 m/s 752 mmHg 25%
    15:00 +43°C° 0 mm 3 m/s 752 mmHg 22%
    16:00 +42°C° 0 mm 3 m/s 752 mmHg 26%
    17:00 +40°C° 0 mm 4 m/s 752 mmHg 30%
    18:00 +38°C° 0 mm 4 m/s 752 mmHg 34%
    19:00 +37°C° 0 mm 4 m/s 753 mmHg 38%
    20:00 +37°C° 0 mm 4 m/s 753 mmHg 41%
    21:00 +36°C° 0 mm 4 m/s 753 mmHg 44%
    22:00 +36°C° 0 mm 3 m/s 753 mmHg 44%
    23:00 +35°C° 0 mm 3 m/s 753 mmHg 44%

    Amanhã, 23 Setembro, Sábado

    Tempo Temperatura Precipitação Vento Pressão Humidade
    00:00 +35°C° 0 mm 2 m/s 753 mmHg 44%
    01:00 +34°C° 0 mm 2 m/s 753 mmHg 44%
    02:00 +34°C° 0 mm 2 m/s 753 mmHg 43%
    03:00 +32°C° 0 mm 2 m/s 753 mmHg 43%
    04:00 +32°C° 0 mm 1 m/s 753 mmHg 43%
    05:00 +32°C° 0 mm 1 m/s 754 mmHg 43%
    06:00 +31°C° 0 mm 1 m/s 754 mmHg 44%
    07:00 +33°C° 0 mm 1 m/s 754 mmHg 40%
    08:00 +35°C° 0 mm 1 m/s 755 mmHg 36%
    09:00 +37°C° 0 mm 1 m/s 755 mmHg 32%
    10:00 +39°C° 0 mm 1 m/s 755 mmHg 29%
    11:00 +40°C° 0 mm 2 m/s 755 mmHg 26%
    12:00 +41°C° 0 mm 2 m/s 754 mmHg 23%
    13:00 +42°C° 0 mm 3 m/s 754 mmHg 22%
    14:00 +42°C° 0 mm 3 m/s 754 mmHg 22%
    15:00 +42°C° 0 mm 3 m/s 753 mmHg 22%
    16:00 +40°C° 0 mm 3 m/s 754 mmHg 26%
    17:00 +39°C° 0 mm 3 m/s 754 mmHg 30%
    18:00 +38°C° 0 mm 3 m/s 754 mmHg 35%
    19:00 +37°C° 0 mm 3 m/s 754 mmHg 37%
    20:00 +36°C° 0 mm 3 m/s 754 mmHg 40%
    21:00 +36°C° 0 mm 3 m/s 755 mmHg 43%
    22:00 +35°C° 0 mm 2 m/s 755 mmHg 45%
    23:00 +34°C° 0 mm 2 m/s 755 mmHg 46%

    Depois de amanhã, 24 Setembro, Domingo

    Tempo Temperatura Precipitação Vento Pressão Humidade
    00:00 +33°C° 0 mm 1 m/s 754 mmHg 48%
    01:00 +32°C° 0 mm 1 m/s 754 mmHg 47%
    02:00 +32°C° 0 mm 1 m/s 754 mmHg 47%
    03:00 +29°C° 0 mm 0 m/s 754 mmHg 47%
    04:00 +31°C° 0 mm 1 m/s 754 mmHg 46%
    05:00 +32°C° 0 mm 1 m/s 755 mmHg 45%
    06:00 +32°C° 0 mm 2 m/s 755 mmHg 45%
    07:00 +34°C° 0 mm 1 m/s 755 mmHg 40%
    08:00 +35°C° 0 mm 1 m/s 756 mmHg 36%
    09:00 +37°C° 0 mm 1 m/s 756 mmHg 31%
    10:00 +39°C° 0 mm 1 m/s 756 mmHg 29%
    11:00 +39°C° 0 mm 1 m/s 755 mmHg 27%
    12:00 +40°C° 0 mm 1 m/s 755 mmHg 25%
    13:00 +40°C° 0 mm 1 m/s 755 mmHg 24%
    14:00 +40°C° 0 mm 2 m/s 754 mmHg 24%
    15:00 +41°C° 0 mm 2 m/s 754 mmHg 24%
    16:00 +40°C° 0 mm 2 m/s 754 mmHg 27%
    17:00 +39°C° 0 mm 3 m/s 754 mmHg 29%
    18:00 +38°C° 0 mm 3 m/s 754 mmHg 32%
    19:00 +37°C° 0 mm 3 m/s 755 mmHg 35%
    20:00 +37°C° 0 mm 3 m/s 755 mmHg 38%
    21:00 +36°C° 0 mm 3 m/s 756 mmHg 41%
    22:00 +36°C° 0 mm 3 m/s 755 mmHg 42%
    23:00 +35°C° 0 mm 2 m/s 755 mmHg 43%

    25 Setembro, Segunda-feira

    Tempo Temperatura Precipitação Vento Pressão Humidade
    00:00 +35°C° 0 mm 2 m/s 755 mmHg 45%
    01:00 +34°C° 0 mm 2 m/s 755 mmHg 45%
    02:00 +34°C° 0 mm 2 m/s 754 mmHg 45%
    03:00 +32°C° 0 mm 2 m/s 754 mmHg 45%
    04:00 +32°C° 0 mm 2 m/s 754 mmHg 45%
    05:00 +32°C° 0 mm 1 m/s 755 mmHg 45%
    06:00 +32°C° 0 mm 1 m/s 755 mmHg 45%
    07:00 +33°C° 0 mm 1 m/s 755 mmHg 41%
    08:00 +35°C° 0 mm 1 m/s 756 mmHg 36%
    09:00 +37°C° 0 mm 1 m/s 756 mmHg 32%
    10:00 +39°C° 0 mm 1 m/s 756 mmHg 30%
    11:00 +39°C° 0 mm 1 m/s 755 mmHg 27%
    12:00 +40°C° 0 mm 1 m/s 755 mmHg 25%
    13:00 +40°C° 0 mm 2 m/s 754 mmHg 25%
    14:00 +42°C° 0 mm 3 m/s 754 mmHg 25%
    15:00 +42°C° 0 mm 3 m/s 754 mmHg 24%
    16:00 +40°C° 0 mm 3 m/s 754 mmHg 28%
    17:00 +38°C° 0 mm 3 m/s 754 mmHg 32%
    18:00 +37°C° 0 mm 3 m/s 754 mmHg 36%
    19:00 +37°C° 0 mm 3 m/s 754 mmHg 39%
    20:00 +36°C° 0 mm 3 m/s 755 mmHg 42%
    21:00 +35°C° 0 mm 2 m/s 755 mmHg 44%
    22:00 +35°C° 0 mm 2 m/s 755 mmHg 46%
    23:00 +33°C° 0 mm 1 m/s 754 mmHg 48%

    26 Setembro, Terça-feira

    Tempo Temperatura Precipitação Vento Pressão Humidade
    00:00 +32°C° 0 mm 1 m/s 754 mmHg 51%
    01:00 +32°C° 0 mm 1 m/s 754 mmHg 50%
    02:00 +31°C° 0 mm 1 m/s 754 mmHg 50%
    03:00 +29°C° 0 mm 0 m/s 753 mmHg 50%
    04:00 +31°C° 0 mm 1 m/s 754 mmHg 50%
    05:00 +31°C° 0 mm 1 m/s 754 mmHg 49%
    06:00 +31°C° 0 mm 2 m/s 754 mmHg 48%
    07:00 +34°C° 0 mm 2 m/s 755 mmHg 43%
    08:00 +36°C° 0 mm 2 m/s 755 mmHg 37%
    09:00 +38°C° 0 mm 3 m/s 755 mmHg 32%
    10:00 +39°C° 0 mm 3 m/s 755 mmHg 28%
    11:00 +40°C° 0 mm 3 m/s 755 mmHg 24%
    12:00 +42°C° 0 mm 3 m/s 754 mmHg 20%
    13:00 +42°C° 0 mm 3 m/s 754 mmHg 20%
    14:00 +42°C° 0 mm 3 m/s 754 mmHg 20%
    15:00 +42°C° 0 mm 3 m/s 753 mmHg 20%
    16:00 +40°C° 0 mm 3 m/s 754 mmHg 25%
    17:00 +39°C° 0 mm 3 m/s 754 mmHg 30%
    18:00 +37°C° 0 mm 3 m/s 754 mmHg 35%
    19:00 +37°C° 0 mm 3 m/s 754 mmHg 38%
    20:00 +36°C° 0 mm 3 m/s 755 mmHg 42%
    21:00 +36°C° 0 mm 3 m/s 755 mmHg 45%
    22:00 +35°C° 0 mm 2 m/s 755 mmHg 48%
    23:00 +35°C° 0 mm 2 m/s 754 mmHg 50%

    27 Setembro, Quarta-feira

    Tempo Temperatura Precipitação Vento Pressão Humidade
    00:00 +34°C° 0 mm 2 m/s 754 mmHg 53%
    01:00 +34°C° 0 mm 2 m/s 754 mmHg 54%
    02:00 +32°C° 0 mm 2 m/s 754 mmHg 56%
    03:00 +31°C° 0 mm 1 m/s 754 mmHg 58%
    04:00 +31°C° 0 mm 1 m/s 754 mmHg 58%
    05:00 +31°C° 0 mm 1 m/s 755 mmHg 58%
    06:00 +29°C° 0 mm 0 m/s 755 mmHg 58%
    07:00 +33°C° 0 mm 1 m/s 756 mmHg 52%
    08:00 +34°C° 0 mm 1 m/s 756 mmHg 46%
    09:00 +36°C° 0 mm 1 m/s 756 mmHg 41%
    10:00 +37°C° 0 mm 1 m/s 756 mmHg 37%
    11:00 +39°C° 0 mm 1 m/s 756 mmHg 34%
    12:00 +40°C° 0 mm 2 m/s 756 mmHg 30%
    13:00 +40°C° 0 mm 2 m/s 755 mmHg 30%
    14:00 +40°C° 0 mm 3 m/s 755 mmHg 29%
    15:00 +42°C° 0 mm 4 m/s 755 mmHg 28%
    16:00 +40°C° 0 mm 4 m/s 755 mmHg 34%
    17:00 +38°C° 0 mm 4 m/s 755 mmHg 39%
    18:00 +37°C° 0 mm 4 m/s 755 mmHg 45%
    19:00 +36°C° 0 mm 3 m/s 755 mmHg 47%
    20:00 +36°C° 0 mm 3 m/s 756 mmHg 50%
    21:00 +35°C° 0 mm 3 m/s 756 mmHg 53%
    22:00 +35°C° 0 mm 2 m/s 756 mmHg 54%
    23:00 +34°C° 0 mm 2 m/s 755 mmHg 55%
    Mostrar mais